Location: Narrabri
(30.3170°S, 149.7830°E)
Time: 16:01:28
(UTC+11:00)

N. Korean satellite - Visible Passes

Search period start: 18 December 2017 00:00
Search period end: 28 December 2017 00:00
Orbit: 461 x 513 km, 97.2° (Epoch: 17 December)

Date Brightness Start Highest point End Pass type
(mag) Time Alt. Az. Time Alt. Az. Time Alt. Az.
19 Dec 10.0 20:38:47 10° SW 20:40:43 14° WSW 20:42:40 10° WNW visible
23 Dec 10.0 20:37:49 10° SW 20:39:52 14° WSW 20:41:55 10° WNW visible
27 Dec 10.0 20:36:49 10° SW 20:38:58 15° WSW 20:41:07 10° WNW visible
